SCP
0 0 0 0 0 0 0 0 0 0 0 0 0 0 0 0 0 0 0 0 0 0 0 0 0 0 1 0 0 0 0 0 0 0 0 0 0 0 0 0 0 0 0 0
0 0 0 0 0 0 0 0 0 0 0 0 0 0 0 0 0 0 0 0 0 0 0 0 0 0 0 1 0 0 0 0 0 0 0 0 0 0 0 0 0 0 0 0
0 0 0 0 0 0 0 0 0 0 0 0 0 0 0 0 0 0 0 0 0 0 0 0 0 0 0 1 1 0 0 0 0 0 0 0 0 0 0 0 0 0 0 0
0 0 0 0 0 0 0 0 0 0 0 0 0 0 0 0 0 0 0 0 0 0 0 0 0 0 0 0 2 1 1 0 0 0 0 0 0 0 0 0 0 0 0 0
0 0 0 0 0 0 0 0 0 0 0 0 0 0 0 0 0 0 0 0 0 0 0 0 0 0 0 0 1 1 1 1 1 0 1 0 1 1 1 0 0 0 0 0
0 0 0 0 0 0 0 0 0 0 0 0 0 0 0 0 0 0 0 0 0 0 0 0 0 0 0 0 1 1 1 2 3 3 2 2 1 0 0 0 0 0 0 0
0 0 0 0 0 0 0 0 0 0 0 0 0 0 0 0 0 0 0 0 0 0 0 0 0 0 0 1 1 2 2 3 3 3 3 2 1 0 0 0 0 0 0 0
0 0 0 0 0 0 0 0 0 0 0 0 0 0 0 0 0 0 0 0 0 0 0 0 0 0 0 0 1 2 2 2 2 2 2 2 0 0 0 0 0 0 0 0
0 0 0 0 0 0 0 0 0 0 0 0 0 0 0 0 0 0 0 0 0 0 0 0 0 0 0 0 0 1 1 1 1 1 1 1 0 0 0 0 0 0 0 0
0 0 0 0 0 0 0 0 0 0 0 0 0 0 0 0 0 0 0 0 0 0 0 0 0 0 0 0 0 0 0 0 0 0 1 1 0 0 0 0 0 0 0 0
0 0 0 0 0 0 0 0 0 0 0 0 0 0 0 0 0 0 0 0 0 0 0 0 0 0 0 0 0 0 0 0 0 0 0 0 0 0 0 0 0 0 0 0
0 0 0 0 0 0 0 0 0 0 0 0 0 0 0 0 0 0 0 0 0 0 0 0 0 0 0 0 0 0 0 0 -0 0 0 0 -0 0 0 0 0 0 0 0
0 0 0 0 0 0 0 0 0 0 0 0 0 0 0 0 0 0 0 0 0 0 0 0 0 -0 -0 0 0 0 0 0 -0 -0 -0 0 0 -0 0 0 0 0 0 0
0 0 0 0 0 0 0 0 0 0 0 0 0 0 0 0 0 0 0 0 0 0 0 0 0 0 0 0 0 0 0 0 0 -0 0 -0 -0 -0 0 0 0 0 0 0
0 0 0 0 0 0 0 0 0 0 0 0 0 0 0 0 0 0 0 0 0 0 0 0 0 0 0 0 0 0 0 0 0 0 0 0 -0 -0 -0 0 0 0 0 0
0 0 0 0 0 0 0 0 0 0 0 0 0 0 0 0 0 0 0 0 0 0 0 0 0 0 0 0 0 0 0 0 0 0 0 0 0 0 0 -0 0 0 0 0
0 0 0 0 0 0 0 0 0 0 0 0 0 0 0 0 0 0 0 0 0 0 0 0 0 0 0 0 0 0 0 0 0 0 0 0 -0 -0 0 0 0 0 0 0
0 0 0 0 0 0 0 0 0 0 0 0 0 0 0 0 0 0 0 0 0 0 0 0 0 0 0 0 0 0 0 0 0 0 0 0 -0 -0 -0 0 0 0 0 0
0 0 0 0 0 0 0 0 0 0 0 0 0 0 0 0 0 0 0 0 0 -0 -0 0 0 0 0 0 0 0 0 0 0 0 0 0 -0 -0 -0 -0 0 0 0 0
0 0 0 0 0 0 0 0 0 0 0 0 0 0 0 0 0 0 0 0 0 0 0 0 0 0 0 0 0 0 0 0 0 0 0 0 0 -0 -0 -0 -0 -0 -0 0
0 0 0 0 0 0 0 0 0 0 0 0 0 0 0 0 0 0 0 0 0 0 0 0 0 0 0 0 0 0 0 0 0 0 0 0 0 0 -0 -0 -0 -0 -0 -0
0 0 0 0 0 0 0 0 0 0 0 0 0 0 0 0 0 0 0 0 0 0 0 0 0 0 0 0 0 0 0 0 0 0 0 0 0 0 0 -0 -0 -0 -0 -0
0 0 0 0 0 0 0 0 0 0 0 0 0 0 0 0 0 0 0 0 0 0 0 0 0 0 0 0 0 0 0 0 0 0 0 0 0 0 0 0 -0 -0 -0 -0
0 0 0 0 0 0 0 0 0 0 0 0 0 0 0 0 0 0 0 0 0 0 0 0 0 0 0 0 0 0 0 0 0 0 0 0 0 0 0 0 -0 -0 -0 -0
0 0 0 0 0 0 0 0 0 0 0 0 0 0 0 0 0 0 0 0 0 0 0 0 0 0 0 0 0 0 0 0 0 0 0 0 0 0 0 0 0 -0 -0 -0
0 0 0 0 0 0 0 0 0 0 0 0 0 0 0 0 0 0 0 0 0 0 0 0 0 0 0 0 0 0 0 0 0 0 0 0 0 0 0 0 0 0 -0 -0
Wind_Speed_500mb
5 7 12 17 14 12 7 5 10 10 12 4 12 12 23 33 24 29 16 24 25 26 28 25 43 48 51 63 74 80 87 92 85 83 77 77 80 73 67 62 59 61 53 49
7 10 20 10 8 9 7 6 14 18 3 11 11 17 20 15 18 6 20 20 25 27 28 24 18 34 52 60 59 76 86 99 93 91 83 81 79 73 68 63 63 65 59 48
15 12 15 13 8 9 9 9 10 17 9 8 4 12 10 10 1 22 30 23 24 29 34 33 18 25 31 54 68 73 80 93 99 96 92 86 85 77 75 76 73 72 66 52
10 7 12 9 9 15 7 16 17 12 5 5 5 7 11 13 5 17 43 43 38 30 26 30 31 27 33 37 42 59 82 94 98 103 101 99 97 91 91 81 78 76 66 57
15 11 9 7 14 14 17 10 14 6 8 6 7 9 14 6 7 14 32 43 39 30 23 25 29 29 32 39 52 65 71 84 94 105 106 101 98 92 90 81 85 73 70 64
12 0 6 4 4 5 6 3 9 9 7 2 12 11 6 9 11 11 31 36 41 41 34 26 18 17 20 35 45 56 69 73 85 93 100 106 103 100 87 88 86 77 74 70
4 7 7 10 5 12 13 10 4 7 4 10 7 7 4 7 8 10 18 34 39 49 52 47 38 25 16 10 30 45 60 61 66 80 88 98 100 98 92 96 77 76 77 76
3 1 17 16 8 1 9 5 9 10 5 5 11 1 2 4 12 18 20 23 42 56 63 65 59 45 33 20 4 19 30 44 55 62 70 78 87 84 87 88 84 77 80 72
6 5 6 16 11 8 6 9 3 10 5 6 3 6 3 2 8 16 19 26 35 42 49 53 59 59 54 33 21 8 12 28 40 50 54 65 74 69 77 74 72 75 80 75
8 5 7 6 8 21 11 5 1 5 5 3 6 6 9 4 11 13 16 28 31 32 32 34 38 43 49 46 39 39 35 25 12 2 21 35 45 49 70 59 54 58 54 71
9 10 7 10 8 3 8 5 8 5 6 9 3 6 7 5 6 11 16 20 24 26 22 23 29 31 31 28 28 31 35 41 39 34 23 11 20 31 51 47 56 64 62 75
4 9 6 5 8 8 6 4 5 7 6 4 7 8 8 9 14 21 34 38 38 28 24 21 21 23 16 21 33 37 34 33 32 28 28 33 26 21 27 41 44 55 45 35
9 3 5 9 9 7 6 1 3 9 6 7 9 7 5 17 20 29 32 40 33 45 36 33 25 18 16 11 16 27 33 32 33 29 32 38 24 17 22 29 37 44 48 62
9 5 7 14 8 5 2 3 4 7 5 4 8 10 8 13 16 33 39 37 41 32 28 33 30 23 21 12 11 17 21 27 32 34 37 42 43 37 16 22 37 42 53 54
7 6 4 4 4 2 6 8 10 7 12 8 11 11 8 9 12 25 31 37 42 50 53 43 27 32 23 13 9 14 22 24 30 35 34 35 37 38 36 19 20 33 37 43
4 5 3 4 5 8 10 12 13 14 11 10 11 13 4 10 21 29 33 43 47 50 54 53 46 22 27 26 25 23 21 23 30 33 37 35 35 36 36 33 22 17 20 26
4 8 5 5 6 11 10 12 7 4 5 6 10 10 4 8 19 31 46 48 39 48 56 58 52 45 26 20 24 29 37 31 26 30 31 34 30 32 34 33 29 24 26 35
9 8 4 5 5 4 8 2 5 8 8 9 6 2 7 17 32 47 51 30 31 54 68 67 59 48 35 23 24 23 23 30 29 28 29 34 39 39 40 36 33 28 28 37
9 9 4 5 5 10 4 7 8 6 10 8 4 4 19 26 34 49 1 17 48 65 64 64 62 56 50 38 25 26 25 25 27 28 28 30 35 40 41 44 40 38 33 28
10 9 8 5 6 8 10 7 9 8 9 8 3 9 20 21 13 21 32 60 55 61 65 69 62 62 59 46 35 29 28 29 30 27 27 35 37 40 40 44 43 40 38 33
7 3 10 4 5 13 9 12 14 6 9 10 13 25 27 9 21 49 59 59 59 60 61 60 66 67 64 56 50 43 33 34 25 31 33 34 36 37 40 40 42 37 37 40
10 10 7 5 4 13 15 10 11 8 6 18 27 28 33 42 55 58 59 64 64 63 66 66 63 62 56 51 52 50 42 33 31 30 33 30 33 37 38 40 41 39 35 34
3 9 6 14 10 7 21 11 12 22 15 27 30 39 43 53 59 61 61 63 63 64 64 62 60 60 55 51 46 50 46 36 31 32 38 33 32 34 37 37 39 40 36 30
5 4 3 4 4 10 23 20 22 20 25 30 39 51 51 57 69 68 61 61 58 61 58 51 57 56 56 50 50 47 46 44 39 35 35 34 35 35 35 35 35 33 32 29
10 2 5 8 18 23 22 13 24 23 30 39 46 49 50 61 65 61 61 57 56 54 46 54 52 57 58 50 51 44 38 51 62 45 40 31 35 35 35 31 28 30 29 26
11 10 8 10 13 9 13 18 26 33 38 34 43 52 54 48 55 53 52 48 45 43 48 48 45 46 49 43 41 32 30 29 46 64 59 35 39 42 39 33 28 24 23 25
Wind_Direction_500mb
154 107 207 215 199 174 177 196 257 256 221 245 256 267 283 301 309 293 288 351 340 341 339 297 244 250 253 247 245 244 236 234 229 229 226 222 224 221 219 221 222 217 214 217
50 212 222 205 155 163 168 193 261 280 214 161 271 267 271 270 258 347 29 20 4 348 352 355 248 240 246 247 247 245 238 233 232 229 229 225 224 220 220 222 220 213 214 213
168 221 136 166 179 173 192 188 226 232 342 228 254 320 324 314 170 67 38 32 25 10 349 348 327 236 248 248 244 243 242 235 233 230 227 226 227 225 221 222 218 216 217 219
212 245 202 162 209 165 245 212 234 227 70 268 117 274 310 280 306 28 15 15 12 9 356 340 326 288 235 242 251 251 245 241 238 230 227 227 226 223 223 222 220 219 219 222
238 187 183 170 215 164 225 172 201 216 170 89 319 108 262 288 65 357 359 1 8 13 6 344 332 307 272 236 243 251 247 243 238 233 227 227 226 231 232 227 223 223 221 224
219 168 65 238 60 131 306 281 63 58 103 117 232 165 314 360 318 338 350 10 22 22 29 23 8 314 276 245 239 246 250 247 240 237 230 230 231 229 233 234 228 227 222 223
41 24 349 40 64 7 55 70 317 327 16 219 294 83 268 339 20 0 333 357 29 40 41 33 23 24 4 291 252 247 250 248 243 240 236 234 235 234 235 238 233 228 219 222
124 99 4 335 46 93 49 111 161 210 198 283 296 53 84 93 39 7 2 8 50 52 51 45 40 36 34 30 347 237 243 243 236 233 233 234 237 239 241 240 241 235 222 227
28 94 335 45 49 6 0 53 166 102 28 96 288 77 60 336 3 7 360 31 46 50 53 51 49 46 43 36 47 76 225 234 235 233 232 235 234 244 244 240 240 233 224 232
14 52 9 332 9 20 54 343 90 19 189 238 292 205 150 347 345 340 356 347 347 12 36 43 48 51 57 59 46 57 60 58 71 127 239 236 231 242 260 255 271 245 234 233
75 48 281 19 50 128 353 351 37 99 119 164 188 258 180 217 287 294 315 339 335 343 8 40 50 41 41 52 58 62 63 55 53 45 27 351 273 243 234 226 236 253 251 248
120 155 219 254 294 224 143 189 162 125 252 242 154 255 62 17 336 326 325 337 333 308 319 307 330 346 15 46 60 52 49 38 26 6 350 352 331 287 247 237 217 234 249 244
180 50 59 350 345 353 62 11 101 89 60 221 164 242 83 9 356 357 357 353 306 297 296 304 297 312 314 333 339 335 338 345 343 348 9 17 11 320 287 249 246 251 230 219
113 120 183 203 198 140 194 324 327 131 122 250 226 286 298 350 343 345 1 8 14 15 351 308 287 293 323 19 35 26 21 7 356 354 343 345 353 356 344 262 247 241 247 245
89 166 190 229 250 241 219 228 250 216 227 187 263 268 272 333 327 338 353 10 13 13 14 5 326 287 289 290 337 346 335 342 343 344 341 341 348 356 350 342 256 230 234 252
24 155 120 256 269 224 248 246 238 238 242 235 232 271 107 333 349 353 346 338 347 353 356 360 10 344 295 281 298 310 318 318 326 333 338 340 336 347 354 350 326 270 241 255
71 132 99 260 340 327 290 216 186 246 247 197 208 233 33 334 331 328 325 328 319 328 335 337 339 345 341 295 285 303 311 308 308 314 325 331 343 346 347 356 343 316 268 255
132 108 115 222 358 245 249 6 119 218 232 212 208 208 1 320 313 307 313 298 316 321 318 318 319 320 328 322 276 280 291 296 299 305 322 329 328 331 331 334 339 340 297 270
157 131 111 158 201 282 217 213 183 169 275 222 185 332 316 318 316 305 324 301 314 314 315 311 306 303 301 312 313 274 273 280 279 285 305 317 324 325 324 325 330 327 329 309
77 80 123 132 143 222 243 188 149 121 281 136 128 281 293 319 309 288 303 311 316 316 314 313 303 294 290 290 293 289 264 257 262 276 290 304 316 324 327 327 327 327 321 319
117 59 173 145 216 288 239 147 139 122 250 186 278 297 296 256 265 302 315 307 307 313 311 308 304 296 286 280 282 281 279 256 267 265 273 288 305 319 323 334 327 330 326 317
171 151 191 109 108 273 159 109 169 203 263 295 299 296 294 299 307 305 303 305 307 307 309 305 302 300 297 283 283 274 265 253 251 263 260 267 290 307 320 321 326 321 325 325
258 189 190 176 216 222 185 226 241 279 272 293 291 304 299 299 304 308 300 303 299 304 306 297 301 302 300 290 286 277 256 246 245 257 261 257 274 294 311 320 322 317 324 324
278 188 198 34 273 234 247 250 293 242 292 313 313 314 314 309 310 308 300 296 295 302 299 303 306 302 299 294 287 275 257 244 249 255 260 251 256 278 296 310 322 320 323 325
230 194 214 272 283 279 267 280 319 285 283 301 311 317 316 312 304 304 306 302 296 298 308 312 306 303 299 292 284 278 258 245 250 256 271 251 252 265 281 294 312 314 318 324
203 195 162 223 247 236 271 323 325 300 304 306 311 314 321 317 313 315 306 299 296 307 312 320 323 313 308 300 286 270 259 258 239 246 259 268 252 258 266 281 297 297 310 331
Wind_Speed_850mb
5 7 12 17 14 12 7 5 10 10 12 4 12 12 23 33 24 29 16 24 25 26 28 25 43 48 51 63 74 80 87 92 85 83 77 77 80 73 67 62 59 61 53 49
7 10 20 10 8 9 7 6 14 18 3 11 11 17 20 15 18 6 20 20 25 27 28 24 18 34 52 60 59 76 86 99 93 91 83 81 79 73 68 63 63 65 59 48
15 12 15 13 8 9 9 9 10 17 9 8 4 12 10 10 1 22 30 23 24 29 34 33 18 25 31 54 68 73 80 93 99 96 92 86 85 77 75 76 73 72 66 52
10 7 12 9 9 15 7 16 17 12 5 5 5 7 11 13 5 17 43 43 38 30 26 30 31 27 33 37 42 59 82 94 98 103 101 99 97 91 91 81 78 76 66 57
15 11 9 7 14 14 17 10 14 6 8 6 7 9 14 6 7 14 32 43 39 30 23 25 29 29 32 39 52 65 71 84 94 105 106 101 98 92 90 81 85 73 70 64
12 0 6 4 4 5 6 3 9 9 7 2 12 11 6 9 11 11 31 36 41 41 34 26 18 17 20 35 45 56 69 73 85 93 100 106 103 100 87 88 86 77 74 70
4 7 7 10 5 12 13 10 4 7 4 10 7 7 4 7 8 10 18 34 39 49 52 47 38 25 16 10 30 45 60 61 66 80 88 98 100 98 92 96 77 76 77 76
3 1 17 16 8 1 9 5 9 10 5 5 11 1 2 4 12 18 20 23 42 56 63 65 59 45 33 20 4 19 30 44 55 62 70 78 87 84 87 88 84 77 80 72
6 5 6 16 11 8 6 9 3 10 5 6 3 6 3 2 8 16 19 26 35 42 49 53 59 59 54 33 21 8 12 28 40 50 54 65 74 69 77 74 72 75 80 75
8 5 7 6 8 21 11 5 1 5 5 3 6 6 9 4 11 13 16 28 31 32 32 34 38 43 49 46 39 39 35 25 12 2 21 35 45 49 70 59 54 58 54 71
9 10 7 10 8 3 8 5 8 5 6 9 3 6 7 5 6 11 16 20 24 26 22 23 29 31 31 28 28 31 35 41 39 34 23 11 20 31 51 47 56 64 62 75
4 9 6 5 8 8 6 4 5 7 6 4 7 8 8 9 14 21 34 38 38 28 24 21 21 23 16 21 33 37 34 33 32 28 28 33 26 21 27 41 44 55 45 35
9 3 5 9 9 7 6 1 3 9 6 7 9 7 5 17 20 29 32 40 33 45 36 33 25 18 16 11 16 27 33 32 33 29 32 38 24 17 22 29 37 44 48 62
9 5 7 14 8 5 2 3 4 7 5 4 8 10 8 13 16 33 39 37 41 32 28 33 30 23 21 12 11 17 21 27 32 34 37 42 43 37 16 22 37 42 53 54
7 6 4 4 4 2 6 8 10 7 12 8 11 11 8 9 12 25 31 37 42 50 53 43 27 32 23 13 9 14 22 24 30 35 34 35 37 38 36 19 20 33 37 43
4 5 3 4 5 8 10 12 13 14 11 10 11 13 4 10 21 29 33 43 47 50 54 53 46 22 27 26 25 23 21 23 30 33 37 35 35 36 36 33 22 17 20 26
4 8 5 5 6 11 10 12 7 4 5 6 10 10 4 8 19 31 46 48 39 48 56 58 52 45 26 20 24 29 37 31 26 30 31 34 30 32 34 33 29 24 26 35
9 8 4 5 5 4 8 2 5 8 8 9 6 2 7 17 32 47 51 30 31 54 68 67 59 48 35 23 24 23 23 30 29 28 29 34 39 39 40 36 33 28 28 37
9 9 4 5 5 10 4 7 8 6 10 8 4 4 19 26 34 49 1 17 48 65 64 64 62 56 50 38 25 26 25 25 27 28 28 30 35 40 41 44 40 38 33 28
10 9 8 5 6 8 10 7 9 8 9 8 3 9 20 21 13 21 32 60 55 61 65 69 62 62 59 46 35 29 28 29 30 27 27 35 37 40 40 44 43 40 38 33
7 3 10 4 5 13 9 12 14 6 9 10 13 25 27 9 21 49 59 59 59 60 61 60 66 67 64 56 50 43 33 34 25 31 33 34 36 37 40 40 42 37 37 40
10 10 7 5 4 13 15 10 11 8 6 18 27 28 33 42 55 58 59 64 64 63 66 66 63 62 56 51 52 50 42 33 31 30 33 30 33 37 38 40 41 39 35 34
3 9 6 14 10 7 21 11 12 22 15 27 30 39 43 53 59 61 61 63 63 64 64 62 60 60 55 51 46 50 46 36 31 32 38 33 32 34 37 37 39 40 36 30
5 4 3 4 4 10 23 20 22 20 25 30 39 51 51 57 69 68 61 61 58 61 58 51 57 56 56 50 50 47 46 44 39 35 35 34 35 35 35 35 35 33 32 29
10 2 5 8 18 23 22 13 24 23 30 39 46 49 50 61 65 61 61 57 56 54 46 54 52 57 58 50 51 44 38 51 62 45 40 31 35 35 35 31 28 30 29 26
11 10 8 10 13 9 13 18 26 33 38 34 43 52 54 48 55 53 52 48 45 43 48 48 45 46 49 43 41 32 30 29 46 64 59 35 39 42 39 33 28 24 23 25
Wind_Direction_850mb
154 107 207 215 199 174 177 196 257 256 221 245 256 267 283 301 309 293 288 351 340 341 339 297 244 250 253 247 245 244 236 234 229 229 226 222 224 221 219 221 222 217 214 217
50 212 222 205 155 163 168 193 261 280 214 161 271 267 271 270 258 347 29 20 4 348 352 355 248 240 246 247 247 245 238 233 232 229 229 225 224 220 220 222 220 213 214 213
168 221 136 166 179 173 192 188 226 232 342 228 254 320 324 314 170 67 38 32 25 10 349 348 327 236 248 248 244 243 242 235 233 230 227 226 227 225 221 222 218 216 217 219
212 245 202 162 209 165 245 212 234 227 70 268 117 274 310 280 306 28 15 15 12 9 356 340 326 288 235 242 251 251 245 241 238 230 227 227 226 223 223 222 220 219 219 222
238 187 183 170 215 164 225 172 201 216 170 89 319 108 262 288 65 357 359 1 8 13 6 344 332 307 272 236 243 251 247 243 238 233 227 227 226 231 232 227 223 223 221 224
219 168 65 238 60 131 306 281 63 58 103 117 232 165 314 360 318 338 350 10 22 22 29 23 8 314 276 245 239 246 250 247 240 237 230 230 231 229 233 234 228 227 222 223
41 24 349 40 64 7 55 70 317 327 16 219 294 83 268 339 20 0 333 357 29 40 41 33 23 24 4 291 252 247 250 248 243 240 236 234 235 234 235 238 233 228 219 222
124 99 4 335 46 93 49 111 161 210 198 283 296 53 84 93 39 7 2 8 50 52 51 45 40 36 34 30 347 237 243 243 236 233 233 234 237 239 241 240 241 235 222 227
28 94 335 45 49 6 0 53 166 102 28 96 288 77 60 336 3 7 360 31 46 50 53 51 49 46 43 36 47 76 225 234 235 233 232 235 234 244 244 240 240 233 224 232
14 52 9 332 9 20 54 343 90 19 189 238 292 205 150 347 345 340 356 347 347 12 36 43 48 51 57 59 46 57 60 58 71 127 239 236 231 242 260 255 271 245 234 233
75 48 281 19 50 128 353 351 37 99 119 164 188 258 180 217 287 294 315 339 335 343 8 40 50 41 41 52 58 62 63 55 53 45 27 351 273 243 234 226 236 253 251 248
120 155 219 254 294 224 143 189 162 125 252 242 154 255 62 17 336 326 325 337 333 308 319 307 330 346 15 46 60 52 49 38 26 6 350 352 331 287 247 237 217 234 249 244
180 50 59 350 345 353 62 11 101 89 60 221 164 242 83 9 356 357 357 353 306 297 296 304 297 312 314 333 339 335 338 345 343 348 9 17 11 320 287 249 246 251 230 219
113 120 183 203 198 140 194 324 327 131 122 250 226 286 298 350 343 345 1 8 14 15 351 308 287 293 323 19 35 26 21 7 356 354 343 345 353 356 344 262 247 241 247 245
89 166 190 229 250 241 219 228 250 216 227 187 263 268 272 333 327 338 353 10 13 13 14 5 326 287 289 290 337 346 335 342 343 344 341 341 348 356 350 342 256 230 234 252
24 155 120 256 269 224 248 246 238 238 242 235 232 271 107 333 349 353 346 338 347 353 356 360 10 344 295 281 298 310 318 318 326 333 338 340 336 347 354 350 326 270 241 255
71 132 99 260 340 327 290 216 186 246 247 197 208 233 33 334 331 328 325 328 319 328 335 337 339 345 341 295 285 303 311 308 308 314 325 331 343 346 347 356 343 316 268 255
132 108 115 222 358 245 249 6 119 218 232 212 208 208 1 320 313 307 313 298 316 321 318 318 319 320 328 322 276 280 291 296 299 305 322 329 328 331 331 334 339 340 297 270
157 131 111 158 201 282 217 213 183 169 275 222 185 332 316 318 316 305 324 301 314 314 315 311 306 303 301 312 313 274 273 280 279 285 305 317 324 325 324 325 330 327 329 309
77 80 123 132 143 222 243 188 149 121 281 136 128 281 293 319 309 288 303 311 316 316 314 313 303 294 290 290 293 289 264 257 262 276 290 304 316 324 327 327 327 327 321 319
117 59 173 145 216 288 239 147 139 122 250 186 278 297 296 256 265 302 315 307 307 313 311 308 304 296 286 280 282 281 279 256 267 265 273 288 305 319 323 334 327 330 326 317
171 151 191 109 108 273 159 109 169 203 263 295 299 296 294 299 307 305 303 305 307 307 309 305 302 300 297 283 283 274 265 253 251 263 260 267 290 307 320 321 326 321 325 325
258 189 190 176 216 222 185 226 241 279 272 293 291 304 299 299 304 308 300 303 299 304 306 297 301 302 300 290 286 277 256 246 245 257 261 257 274 294 311 320 322 317 324 324
278 188 198 34 273 234 247 250 293 242 292 313 313 314 314 309 310 308 300 296 295 302 299 303 306 302 299 294 287 275 257 244 249 255 260 251 256 278 296 310 322 320 323 325
230 194 214 272 283 279 267 280 319 285 283 301 311 317 316 312 304 304 306 302 296 298 308 312 306 303 299 292 284 278 258 245 250 256 271 251 252 265 281 294 312 314 318 324
203 195 162 223 247 236 271 323 325 300 304 306 311 314 321 317 313 315 306 299 296 307 312 320 323 313 308 300 286 270 259 258 239 246 259 268 252 258 266 281 297 297 310 331